User: anonymous   Login
Location: Auckland
(36.8670°S, 174.7670°E)
Time: 20:37:05
(UTC+12:00)
Language:

Tiros 1 despin weight - Orbit

View from above orbital plane
View from above orbital plane
View from above satellite
View from above satellite

Ground track
Ground track

The orbit data is extracted from the following two-line orbital elements,

1   115U 60002D   19229.15398817 -.00000081  00000-0  17549-4 0  9990
2   115  48.1671 302.1682 0034447 342.1084  17.8614 14.83462323167649
Epoch (UTC): 17 August 2019 03:41:44
Eccentricity: 0.0034447
inclination: 48.1671°
perigee height: 594 km
apogee height: 642 km
right ascension of ascending node: 302.1682°
argument of perigee: 342.1084°
revolutions per day: 14.83462323
mean anomaly at epoch: 17.8614°
orbit number at epoch: 16764

The dashed part of the orbit path shows where the satellite is in the earth's shadow,  

DLR